Regional Weather Roundup
Issued by NWS Northern Indiana

Home | Current Version | Previous Version | Text Only | Print | Product List | Glossary Off
Versions: 1 2 3 4 5 6 7 8 9 10 11 12 13 14 15 16 17 18 19 20 21 22 23 24 25 26 27 28 29 30 31 32 33 34 35 36 37 38 39 40 41 42 43 44 45 46 47 48 49 50

000
ASUS43 KIWX 240810
RWRIWX

KIWX WEATHER ROUNDUP
NATIONAL WEATHER SERVICE NORTHERN INDIANA
400 AM EDT WED MAY 24 2017

NOTE: "FAIR" INDICATES FEW OR NO CLOUDS BELOW 12,000 FEET WITH NO
SIGNIFICANT WEATHER AND/OR OBSTRUCTIONS TO VISIBILITY.

* THESE STATIONS ARE NOT UNDER NWS QUALITY CONTROL. THEY ALSO MAY NOT
  REPORT WEATHER SUCH AS PRECIPITATION OR FOG.

INZ001>027-240900-
NORTHERN INDIANA

CITY           SKY/WX    TMP DP  RH WIND       PRES   REMARKS
GARY*          RAIN      56  55  95 CALM      29.62F
VALPARAISO     CLOUDY    57  55  93 N6        29.59F
MICHIGAN CITY* CLOUDY    54  54 100 N3        29.60F FOG
LAPORTE*       CLOUDY    56  55  94 NE6       29.59F
KNOX*          CLOUDY    55  52  88 N6        29.58F
SOUTH BEND     CLOUDY    56  54  93 NE5       29.60F
GOSHEN         CLOUDY    58  52  80 E5        29.59F
MONTICELLO*    CLOUDY    56  55  95 NW7       29.56F FOG
LOGANSPORT*    MOCLDY    59  52  77 CALM      29.57F
ROCHESTER*     CLOUDY    61  54  77 NE6       29.57F
WARSAW*        CLOUDY    57  52  82 E7        29.58F
ANGOLA*        PTCLDY    57  54  88 E7        29.60F
FORT WAYNE     CLOUDY    59  51  75 E10       29.57F
HUNTINGTON*    CLOUDY    58  51  78 NE6       29.57F
PERU/GRISSOM   CLOUDY    60  53  78 E6        29.54F
MARION*        CLOUDY    59  52  77 E6        29.56F HAZE

$$
INZ028>050-240900-
CENTRAL INDIANA

CITY           SKY/WX    TMP DP  RH WIND       PRES   REMARKS
LAFAYETTE      CLOUDY    56  55  97 NW7       29.56F
KOKOMO*        CLOUDY    60  54  80 E10       29.55F
MUNCIE*        CLOUDY    61  54  77 SE3       29.56F
INDIANAPOLIS   CLOUDY    60  52  74 W7        29.55F

$$
MIZ043>046-050>051-056>058-064>065-071>073-077>080-240900-
SOUTHWEST LOWER MICHIGAN

CITY           SKY/WX    TMP DP  RH WIND       PRES   REMARKS
BATTLE CREEK   CLOUDY    56  53  90 NE10      29.62F
BENTON HARBOR  CLOUDY    58  52  80 NE7       29.60F
COLDWATER*     CLOUDY    55  54  95 NE7       29.61F
HILLSDALE*     PTCLDY    54  50  87 E6        29.61F
HOLLAND        MOCLDY    57  54  89 NE5       29.64F
GRAND RAPIDS   CLOUDY    56  55  97 NE7       29.64F
KALAMAZOO      CLOUDY    57  53  86 NE6       29.62F
STURGIS*       MOCLDY    56  53  91 E7        29.59F
THREE RIVERS*  MOCLDY    56  53  88 NE5       29.61F

$$
OHZ001>008-015>018-024>025-240900-
NORTHWEST OHIO

CITY           SKY/WX    TMP DP  RH WIND       PRES   REMARKS
WAUSEON*       CLOUDY    57  54  88 NE9       29.61F
DEFIANCE       CLOUDY    57  49  74 E7        29.60F
FINDLAY        CLOUDY    59  51  75 SE8       29.59F
TOLEDO EXPRESS PTCLDY    58  49  72 NE7       29.60F
TOLEDO METCALF CLOUDY    60  55  83 N5        29.61F
LIMA           CLOUDY    58  55  90 E3        29.59F

$$
AND FOR LAKE MICHIGAN COASTAL AND OPEN LAKE BUOY OBSERVATIONS

STATION/POSITION TEMP    WIND        PRES    VSBY  WAVE
                 AIR SEA DIR/SP/G                  HT/PER
                 (F)     (DEG/KT/KT) (MB)    (MI)  (FT/S)
CALUMET HARBOR    53     340/  8/ 11 1002.5F
MICHIGAN CITY     54      20/ 12/ 13   N/A
BURNS HARBOR      53      40/  1/  3 1003.4F
SOUTH LAKE BUOY   47 45  350/  8/  8 1004.0F         0
4 MI NW BRIDGMAN  58 56   70/ 10/ 14 1002.5          1/ 2
MICHIGAN CITY     53 53   30/ 10/ 12   N/A           1/ 3

$$
&&




USA.gov is the U.S. government's official web portal to all federal, state and local government web resources and services.